{"data":{"norad_id":52564,"epoch":"2026-05-25T04:49:54.041088Z","epoch_age_seconds":57809,"freshness":"FRESH","line1":"1 52564U 22051AH  26145.20131992 -.00000085  00000+0  12722-4 0  9998","line2":"2 52564  53.2116 150.6572 0001018  60.0585 300.0508 15.08834640222924","mean_motion":15.0883464,"eccentricity":0.0001018,"inclination_deg":53.2116,"raan_deg":150.6572,"arg_perigee_deg":60.0585,"mean_anomaly_deg":300.0508,"bstar":1.2722e-5,"rev_number":22292,"period_min":95.437893711136,"perigee_km":539.05553049687,"apogee_km":540.46401427973,"semimajor_km":6917.8967723883,"source":"CELESTRAK","updated_at":"2026-05-25T13:38:17.167255Z"}}